Wind_Speed
20 19 19 19 16 15 16 17 18 19 19 18 15 13 15 14 10 10 11 12 12 11 15 20 20 17 17 18 21 23 24 27 28 26 26 28 28 26 25 27 28 27 26 24 23 25 28 24 23 23 23 25 25 25 25 24 25 26 26 24 23 22 23 22 21 19 17 16 16 15 15 15 14 13 13 14 16 20 23 25 25 24 23 21 22 22 21
19 19 18 17 17 17 17 18 21 21 19 18 17 16 17 17 16 15 15 15 14 13 16 20 21 22 23 24 26 26 25 27 28 26 26 27 28 29 28 30 29 28 27 24 21 26 29 24 23 21 18 21 21 22 25 24 24 26 25 23 23 22 22 22 21 19 17 17 17 16 15 14 12 12 13 15 18 22 24 23 23 22 20 19 20 21 20
16 17 16 16 17 17 18 21 23 21 18 18 17 15 14 14 15 14 12 12 12 11 14 18 23 26 26 24 24 25 26 26 26 26 26 25 25 27 29 29 30 31 32 29 24 23 28 28 24 21 17 16 19 21 22 23 24 25 23 21 21 22 22 21 20 18 16 16 15 14 13 11 11 12 14 17 19 22 22 20 19 19 19 19 19 19 20
12 13 14 17 17 17 20 21 19 16 15 14 13 13 11 11 12 12 11 10 9 9 12 16 21 23 22 22 24 24 23 24 24 25 26 25 24 25 29 30 28 28 30 31 25 20 21 27 24 22 20 16 19 21 21 22 23 22 22 20 20 21 20 19 18 16 15 15 13 12 10 10 11 13 15 17 19 19 19 17 18 19 19 20 20 20 22
12 13 14 15 14 14 15 13 10 11 12 13 14 13 13 13 11 10 10 9 9 11 14 15 17 18 19 21 21 20 21 23 24 25 26 28 27 26 28 30 30 28 24 28 30 26 22 23 24 21 22 18 20 22 21 22 22 21 21 20 19 20 19 18 17 16 15 14 12 10 10 11 12 14 16 17 17 17 16 17 19 20 20 20 21 22 24
12 14 13 12 12 13 10 6 6 10 13 15 15 13 14 15 13 11 11 12 13 14 14 15 16 16 17 19 20 21 22 22 23 25 28 29 29 28 28 28 30 32 26 21 28 31 28 23 21 19 19 19 21 22 22 23 21 20 21 19 19 19 18 17 16 15 14 12 10 10 10 11 13 14 15 16 15 15 15 17 20 22 23 23 23 23 25
10 11 10 10 12 12 10 9 10 14 15 16 17 17 17 17 16 15 15 15 16 16 16 17 16 13 15 18 20 21 22 22 22 24 25 26 27 28 28 27 30 33 29 23 23 30 31 28 26 22 19 20 22 22 22 22 21 21 20 18 18 19 17 15 14 13 12 10 8 8 10 12 13 14 15 15 14 14 16 19 22 25 25 25 24 25 26
9 9 9 10 11 12 14 14 12 13 12 10 11 12 14 15 15 15 14 14 13 14 15 14 13 14 16 17 18 20 21 19 19 20 22 25 27 29 29 27 28 31 29 26 24 28 28 26 26 24 22 22 22 22 23 22 21 21 20 18 18 17 16 14 11 10 8 8 8 8 11 12 13 13 14 14 14 15 19 22 25 25 24 24 25 26 27
9 10 10 11 12 13 14 11 6 5 4 5 5 5 9 13 12 11 11 10 10 12 14 14 14 15 15 13 14 16 15 15 19 22 25 27 28 29 31 31 31 32 31 29 28 27 24 22 22 23 23 23 22 22 23 21 21 21 19 17 18 17 15 13 9 7 7 7 8 10 11 11 12 13 13 14 15 17 21 22 22 22 23 25 27 27 27
9 10 11 10 11 11 10 6 5 9 8 7 5 4 8 8 7 9 10 9 10 11 13 16 17 14 10 8 10 11 12 16 22 25 28 28 28 30 33 34 36 37 34 31 32 32 29 24 21 21 22 23 23 23 22 21 21 20 18 17 17 16 14 11 8 7 7 8 9 10 11 11 11 12 14 15 16 17 20 22 22 22 24 26 27 26 27
9 10 11 11 9 8 9 6 6 10 7 6 4 6 7 3 7 9 9 8 8 7 10 15 16 11 7 8 9 13 18 22 24 27 28 27 28 31 31 31 34 36 33 30 29 30 30 27 23 22 23 22 21 21 22 21 20 18 18 17 15 14 13 12 9 7 7 8 9 9 10 10 11 13 14 16 16 18 20 22 24 24 24 25 26 26 27
11 11 11 9 8 8 10 5 6 9 6 5 2 8 4 6 9 10 11 13 12 9 11 15 12 7 7 10 13 19 23 24 24 25 25 26 27 28 29 30 29 28 26 25 24 23 24 25 25 23 22 22 19 18 20 20 19 18 17 15 14 14 15 13 8 4 6 7 8 8 9 10 12 14 15 15 16 19 21 23 24 24 23 25 28 29 28
13 12 10 8 8 5 3 3 5 4 2 0 4 7 4 8 12 11 9 12 13 13 14 14 12 13 17 19 23 26 26 25 26 24 24 28 28 26 26 24 17 14 12 13 18 19 18 20 22 19 18 19 16 15 18 19 18 16 15 14 14 14 12 7 2 3 5 7 8 9 10 11 13 14 14 14 16 19 21 22 22 23 25 27 29 29 29
10 9 9 10 8 1 5 3 1 1 2 4 5 7 11 14 15 12 8 10 13 13 14 14 15 20 24 25 26 28 26 26 27 25 27 33 32 28 26 21 13 11 11 11 14 14 12 16 18 15 15 15 14 15 17 17 16 15 14 14 12 9 7 4 1 4 5 7 9 9 10 11 12 13 14 14 17 20 22 21 21 23 25 28 30 30 30
8 8 9 9 6 2 3 3 3 2 2 8 11 13 16 17 15 13 12 11 11 11 13 14 16 20 23 24 26 27 27 27 27 28 32 34 28 23 22 21 16 13 14 16 13 10 10 12 12 10 11 13 15 16 17 17 16 14 12 10 8 7 5 2 2 3 5 8 9 9 10 11 12 14 14 14 18 21 21 19 21 24 27 28 30 32 34
6 8 6 5 6 5 3 5 6 6 9 14 17 17 17 16 14 13 14 14 13 12 13 16 18 19 22 23 24 25 26 27 28 31 33 27 18 13 13 16 18 15 14 17 13 8 9 8 8 8 10 15 17 17 18 18 15 12 10 8 8 7 5 2 1 2 4 5 7 8 9 11 12 12 13 14 17 19 19 20 22 26 30 32 34 36 37
6 8 8 10 14 17 16 16 17 17 18 18 18 17 16 14 12 12 14 17 17 17 18 19 20 21 21 22 23 24 25 26 27 30 27 17 10 10 8 9 13 12 12 15 11 8 9 7 9 10 12 15 17 17 18 19 16 13 10 9 9 8 6 4 2 1 2 3 6 7 8 10 11 11 12 15 17 19 21 23 25 28 32 35 37 39 39
8 11 14 16 19 21 22 20 18 20 21 17 12 10 11 12 12 13 15 18 20 21 21 20 21 22 22 22 24 25 25 25 25 26 21 12 10 15 13 8 8 11 14 15 12 8 8 9 10 10 12 15 17 18 18 18 15 12 10 10 10 8 6 5 2 0 1 3 7 7 8 11 13 13 14 16 16 18 22 25 26 30 33 35 37 39 39
8 9 11 14 17 20 21 20 20 22 20 13 8 6 9 14 16 15 15 17 17 19 19 19 21 23 23 23 24 24 23 25 25 22 17 13 14 19 20 15 13 15 16 14 10 8 9 9 9 11 14 16 17 17 17 16 13 11 11 12 10 7 6 5 2 1 2 6 8 9 10 13 15 15 16 15 16 19 22 23 27 31 34 35 36 37 38
8 10 14 19 23 24 24 23 20 16 12 10 9 10 12 15 16 15 15 15 13 14 17 19 22 25 24 23 23 22 23 24 21 16 14 14 16 17 18 17 16 16 14 11 9 9 10 10 10 12 15 17 17 15 14 13 12 12 12 11 9 8 7 5 3 2 4 7 10 12 13 15 16 17 18 18 18 21 22 23 27 33 35 36 35 34 36
11 13 16 19 21 21 21 20 15 12 11 13 16 17 17 17 15 13 14 13 11 13 17 19 22 24 24 21 19 18 19 19 17 13 12 13 15 15 13 13 14 13 11 10 11 11 12 12 11 13 16 17 17 15 13 12 13 13 13 11 9 7 6 6 3 4 7 8 10 13 14 16 18 19 19 20 19 20 20 22 26 32 37 36 34 33 35
10 10 11 11 10 10 14 17 18 16 13 14 18 20 20 17 13 12 12 12 12 14 16 18 20 20 18 17 16 14 14 13 12 11 10 11 13 13 11 10 11 10 9 9 10 13 14 13 12 14 15 16 18 16 13 13 14 12 10 10 9 7 6 6 2 6 8 8 11 14 15 17 20 19 19 20 19 18 20 22 25 31 37 37 34 33 34
10 15 18 16 12 13 16 20 21 19 14 13 16 18 16 14 13 13 12 13 14 15 16 17 17 15 14 15 13 9 9 9 10 11 10 10 12 13 12 12 12 11 9 8 9 12 14 14 14 16 15 16 18 16 13 14 14 10 7 9 9 7 5 3 2 7 9 10 13 14 15 17 18 17 19 20 19 19 21 22 24 31 38 38 36 34 34
15 20 23 20 16 17 19 21 24 23 17 13 12 12 11 12 12 12 12 13 13 14 15 16 15 12 12 12 9 8 9 8 9 11 10 10 11 12 12 13 12 10 9 9 9 11 15 15 15 17 16 15 16 16 14 14 11 8 7 7 6 5 4 2 4 7 9 10 12 13 14 15 15 17 19 18 16 18 20 21 24 32 38 38 38 38 37
18 22 23 20 17 18 22 26 28 25 17 11 9 9 9 11 12 12 12 12 11 12 15 15 12 9 9 9 10 13 14 9 6 6 7 8 11 11 9 9 9 7 8 8 8 10 13 14 15 16 16 16 17 17 15 12 9 8 7 5 4 4 3 3 5 6 8 10 12 14 14 13 15 18 18 17 17 18 18 19 24 32 36 37 39 41 40
21 23 22 18 15 17 20 23 24 20 14 12 11 10 10 11 13 13 11 10 10 12 15 13 7 3 4 7 10 14 15 11 9 7 8 10 11 9 7 6 7 8 8 7 7 8 11 13 15 16 15 16 17 15 12 10 9 8 6 4 4 2 3 7 7 6 8 11 14 15 13 13 18 19 17 16 18 19 17 19 25 32 35 37 40 41 41
17 19 19 16 15 16 16 18 20 19 18 17 16 13 10 9 11 11 10 9 9 12 14 9 2 2 3 5 10 12 11 10 9 6 6 8 9 8 6 6 8 10 10 9 10 11 12 13 15 14 14 15 14 11 9 10 10 8 5 3 2 3 7 10 8 6 8 12 14 15 15 18 20 18 14 15 20 20 18 19 25 31 33 36 41 43 41
14 15 14 13 15 18 18 19 20 19 17 18 20 19 14 10 9 10 7 6 7 11 10 2 0 5 7 7 10 12 8 5 3 1 4 4 4 7 8 9 11 12 11 11 12 12 13 13 13 13 13 12 10 8 9 10 9 6 4 2 1 4 6 7 5 7 12 14 14 16 19 20 19 17 15 17 20 21 19 19 24 29 31 34 40 43 42
12 13 13 13 17 19 19 18 19 17 15 15 19 21 16 11 9 8 6 5 5 8 6 2 5 8 9 9 11 11 7 5 6 7 9 9 10 11 12 13 14 14 13 12 12 13 14 13 12 13 12 11 10 9 8 8 7 5 4 3 2 4 5 5 7 11 16 17 15 16 17 17 16 16 17 18 20 19 18 20 25 27 28 32 38 43 44
9 11 13 13 15 15 14 15 17 15 11 11 15 17 13 9 8 8 5 4 3 5 4 4 6 6 6 7 8 8 8 9 11 12 13 12 13 13 13 15 16 16 14 12 10 12 13 12 11 11 10 9 10 9 6 6 6 4 2 2 3 4 5 7 9 13 15 16 15 17 17 15 15 16 17 19 20 17 17 21 24 25 26 31 35 39 43
8 9 10 10 10 10 9 9 10 10 9 9 11 12 11 9 8 7 3 2 3 3 2 4 4 2 2 4 6 10 12 12 14 16 15 15 16 16 15 16 16 16 15 13 12 12 11 10 10 10 8 7 7 5 4 5 5 2 3 5 6 6 6 9 12 14 15 15 15 16 16 15 15 16 17 19 19 17 17 22 24 22 24 29 32 34 39
5 7 8 9 10 10 9 9 8 9 10 10 10 11 11 9 7 4 3 3 4 3 5 7 6 3 1 3 8 13 15 16 18 19 18 17 18 19 20 20 18 17 16 15 15 14 13 11 10 9 7 6 5 5 5 6 5 3 2 5 6 9 12 14 14 15 15 14 12 13 14 14 14 16 16 17 19 18 18 22 23 20 21 27 30 30 33
8 10 10 11 12 11 10 11 11 10 10 11 11 11 9 6 2 1 1 2 3 5 8 9 7 5 5 7 13 17 17 18 20 21 21 21 21 21 22 22 20 19 18 17 17 18 15 13 12 10 8 6 5 6 7 7 6 5 6 9 10 12 13 13 12 13 14 13 12 12 12 12 13 16 17 17 19 20 19 19 19 19 21 25 27 27 29
12 11 10 10 10 10 9 10 10 10 10 10 8 5 3 4 5 6 8 9 9 9 9 9 8 9 11 13 16 18 19 20 22 22 22 23 23 23 24 23 23 22 21 19 18 18 16 15 14 11 9 7 5 4 2 2 2 3 6 9 10 10 10 9 10 10 10 11 14 12 10 9 12 13 14 14 17 21 20 17 16 19 22 24 24 26 27
12 11 10 10 9 8 7 8 8 8 9 9 6 7 10 10 10 10 11 10 8 8 10 11 12 15 16 16 17 19 20 22 23 23 23 24 24 23 24 24 24 24 24 23 21 18 16 15 14 13 11 9 7 6 6 5 4 4 5 6 7 8 8 7 7 7 7 10 12 11 10 11 12 11 11 14 17 20 20 16 14 20 24 24 24 26 27
13 12 11 11 11 10 8 8 8 9 12 14 13 13 13 14 14 13 12 10 8 10 15 17 18 18 18 18 19 21 22 22 23 24 24 24 24 23 23 24 24 24 24 22 19 17 15 15 14 13 13 12 11 9 9 8 7 6 7 7 6 7 8 7 7 8 8 8 9 9 11 14 13 11 13 15 16 19 21 16 13 18 24 25 25 27 27
14 14 13 14 13 12 10 9 9 10 13 16 17 17 16 16 15 15 16 19 21 22 22 20 17 17 20 21 22 22 22 22 23 24 23 23 24 25 25 24 23 22 22 21 18 16 16 16 16 16 15 14 12 10 10 10 9 9 9 9 7 7 8 8 8 10 11 10 10 11 12 12 12 12 14 15 15 17 20 19 16 15 19 25 28 28 27
15 15 16 17 17 17 16 15 14 14 16 18 20 19 20 21 23 24 26 28 25 22 20 19 19 20 23 25 24 24 24 24 24 24 23 23 25 26 26 26 25 23 21 18 15 14 13 14 16 17 16 14 13 12 11 11 12 11 10 9 8 9 9 8 9 10 10 11 11 10 10 11 12 12 13 14 16 16 18 20 19 16 16 22 28 29 26
15 16 18 20 22 25 25 25 25 25 26 27 27 26 26 28 30 31 29 24 18 16 19 21 22 22 24 24 24 24 24 23 23 23 23 23 24 26 26 26 26 24 21 16 13 12 11 11 13 15 15 14 14 13 12 11 11 11 10 11 10 10 10 11 10 9 9 9 10 9 8 10 12 12 12 13 15 16 15 17 19 19 17 19 23 26 26
16 17 18 20 23 26 29 30 31 31 31 31 32 31 30 30 31 31 29 27 25 25 27 27 25 24 23 24 24 24 23 22 22 21 21 22 23 25 26 25 23 22 21 19 16 15 13 13 14 15 15 15 14 14 14 15 13 11 11 12 12 11 11 11 11 11 10 10 11 10 9 9 10 11 10 10 12 14 14 14 17 20 21 20 19 22 25
18 18 19 22 23 25 26 28 29 30 29 29 29 29 28 27 29 30 30 30 30 30 30 29 28 26 24 24 24 23 22 21 20 18 19 20 22 23 24 23 21 20 20 19 18 16 14 13 13 14 14 15 15 16 16 16 15 14 13 13 13 13 13 12 12 12 11 10 9 9 7 7 8 9 9 10 11 13 13 13 14 18 21 21 19 20 22
19 19 21 23 23 24 25 24 24 26 27 27 26 25 24 24 25 26 25 26 28 29 29 28 27 25 24 23 22 21 19 17 17 17 19 20 21 21 22 21 19 18 19 19 18 17 16 14 13 12 12 14 15 16 16 15 15 14 14 13 13 14 15 15 14 12 10 9 7 6 6 7 9 9 9 10 12 14 14 14 14 13 15 17 19 19 20
20 19 20 21 21 23 25 25 23 24 24 23 23 22 21 20 21 21 21 22 24 25 25 24 24 24 24 23 21 20 18 16 15 15 16 17 18 18 19 18 17 17 17 17 17 17 15 14 14 13 11 11 12 14 15 15 14 14 14 14 13 13 14 15 15 13 11 10 9 8 7 7 8 9 9 11 15 15 14 14 14 13 11 11 13 13 14
19 19 19 19 20 21 24 26 26 25 24 22 20 19 18 18 18 17 17 17 17 18 18 19 19 20 21 21 20 19 17 16 13 12 11 12 14 15 16 15 15 15 16 16 16 16 14 12 12 12 10 9 9 10 12 12 12 12 12 12 11 11 12 13 14 14 14 13 12 11 10 9 9 10 11 12 14 14 12 12 12 13 12 10 9 9 9
19 18 18 18 18 19 21 23 24 25 25 24 22 20 18 17 16 15 14 14 13 12 14 15 15 16 18 18 17 16 14 14 14 12 11 10 11 13 14 14 14 14 15 15 15 14 12 11 9 9 8 8 7 8 9 9 9 9 10 10 10 11 11 12 13 14 14 14 14 13 13 12 11 12 12 13 13 12 12 11 10 11 12 12 11 11 10
18 17 17 17 18 17 17 17 19 20 20 21 22 21 19 17 16 15 13 12 11 11 11 11 11 12 13 13 13 13 12 11 12 12 13 13 12 11 12 13 13 13 13 13 13 12 11 10 8 7 6 6 6 6 7 7 7 8 8 9 9 10 10 10 11 11 12 12 13 13 13 12 12 13 13 13 13 13 13 12 11 11 11 12 13 12 12
16 16 16 16 16 16 15 15 15 15 16 16 17 18 17 16 16 15 15 14 13 12 11 10 9 9 9 8 8 10 11 11 10 10 11 11 10 11 11 11 11 12 13 13 12 11 10 10 9 7 6 6 5 5 5 6 6 6 7 7 7 8 8 8 9 9 9 10 10 11 11 12 12 12 13 13 13 13 13 13 13 13 13 13 13 12 12
15 15 15 14 14 14 14 14 14 14 14 14 14 14 14 14 14 13 13 12 12 12 12 11 11 11 11 9 7 6 6 7 8 10 9 7 6 9 11 12 11 10 10 10 12 11 10 9 9 8 7 6 5 4 4 4 4 5 5 5 6 6 6 7 7 8 8 8 9 10 10 11 11 12 12 13 13 13 14 13 13 13 13 13 13 12 11
13 13 13 12 12 12 12 12 12 12 11 11 11 11 11 11 11 11 10 9 9 9 9 10 9 9 10 10 10 9 7 6 6 7 7 6 8 9 10 10 11 10 7 7 9 11 11 8 8 7 6 5 4 3 3 4 3 3 4 5 6 6 7 7 7 7 8 8 8 9 10 10 11 11 12 12 12 12 13 13 13 13 12 12 12 12 11
11 11 11 11 11 11 10 11 10 9 9 9 9 10 9 8 8 9 9 8 8 7 7 7 7 7 7 7 8 8 8 8 7 6 5 6 8 9 10 9 10 10 8 7 8 11 11 9 8 7 6 5 4 3 2 2 2 2 3 3 4 5 6 7 7 7 7 7 7 8 8 9 9 10 10 11 11 12 12 12 12 12 12 12 12 11 11
9 9 9 10 10 11 11 11 10 10 9 8 9 9 9 9 9 9 8 7 7 7 6 6 6 5 5 6 6 6 7 8 9 8 6 4 5 8 10 10 9 10 9 7 6 8 10 10 8 7 6 5 5 4 3 2 2 2 2 2 3 4 6 7 7 7 7 7 7 7 8 8 8 8 9 10 10 10 11 11 12 12 12 13 13 13 12
9 9 9 9 9 9 9 9 9 8 8 8 7 7 8 9 10 8 6 5 6 6 5 5 5 6 6 5 4 4 5 7 9 10 9 6 3 5 6 7 8 9 9 7 7 8 10 10 9 7 6 6 5 4 4 4 4 4 4 5 5 5 6 7 8 8 8 7 7 8 8 8 8 9 9 10 10 10 10 11 12 13 13 13 13 13 13
Wind_Direction
263 268 272 276 280 276 275 275 271 269 268 267 270 274 277 279 273 271 276 278 277 276 275 275 278 284 290 295 298 298 296 292 289 285 285 284 278 272 267 264 264 262 262 276 290 282 267 243 221 223 215 201 203 203 195 194 194 191 193 196 194 193 197 202 205 207 210 213 215 221 229 239 252 263 271 279 285 290 293 295 295 293 290 287 284 281 280
267 267 270 276 279 278 275 272 268 266 267 271 275 275 275 275 272 270 273 272 270 266 267 273 281 289 293 293 293 291 286 284 285 282 280 279 279 276 268 260 259 259 256 256 267 283 283 260 233 228 211 195 198 195 188 190 190 188 193 196 193 192 195 199 203 204 206 211 215 223 234 247 261 270 277 284 289 293 295 295 295 294 291 289 287 284 283
271 270 275 277 276 278 276 270 267 269 274 278 276 274 274 271 270 276 279 276 270 268 274 280 285 288 290 290 288 287 286 284 283 284 281 278 281 286 284 274 262 257 256 248 243 261 279 277 251 223 206 196 190 182 184 189 186 187 194 196 192 192 193 196 201 202 204 212 221 231 243 253 262 270 279 284 287 292 295 296 295 294 291 288 288 288 288
270 272 276 274 274 278 273 266 266 270 273 272 270 272 274 271 275 282 282 277 274 282 290 289 287 289 290 290 291 294 298 299 298 296 293 292 295 300 303 300 284 266 253 241 232 232 254 277 267 226 210 206 188 183 188 188 182 184 190 191 190 189 190 192 195 197 201 208 216 226 236 245 257 270 278 282 287 292 294 293 292 290 288 287 287 288 289
270 271 273 277 283 278 268 267 273 269 265 268 270 269 267 269 273 274 273 277 281 288 293 288 286 287 285 289 300 309 313 314 315 315 312 309 309 308 309 310 303 295 275 245 232 219 223 262 268 230 212 207 193 189 190 186 182 183 184 184 185 183 184 187 190 193 198 202 208 219 231 247 265 278 282 284 287 289 288 289 289 287 286 289 290 289 291
272 276 281 286 278 263 264 290 297 280 279 282 280 277 275 272 271 272 276 282 288 290 290 287 289 294 299 308 318 320 316 313 312 313 311 310 309 305 304 304 301 303 302 271 236 215 210 235 247 225 213 209 197 192 189 185 185 183 179 179 180 179 180 183 188 191 193 198 208 221 239 262 278 284 285 286 287 287 288 289 288 286 288 291 293 293 295
272 280 281 269 255 255 276 295 288 281 285 292 293 290 287 282 283 289 289 287 289 288 283 286 297 317 328 326 320 315 313 312 310 310 312 315 316 309 302 300 296 294 298 291 254 225 216 218 217 213 214 207 196 191 187 185 185 181 177 176 177 178 177 178 184 189 193 200 214 232 256 274 282 280 279 286 290 289 289 289 288 290 294 296 296 296 296
265 269 262 254 260 276 283 283 286 284 285 308 321 307 299 301 304 306 302 297 303 308 310 315 326 334 329 314 303 303 307 311 318 326 329 327 321 313 305 300 295 290 291 289 266 239 224 213 205 205 208 203 195 188 184 184 184 179 177 176 175 174 172 174 179 187 197 210 225 250 270 275 274 272 273 283 290 289 289 291 292 293 294 294 296 296 295
250 259 259 260 273 281 277 277 312 342 334 5 12 317 296 303 313 330 332 332 345 343 337 339 337 331 325 310 299 302 307 324 336 335 329 323 316 309 303 293 286 284 285 282 267 243 222 203 194 198 202 199 193 186 183 184 180 176 178 178 174 171 171 175 184 197 214 232 246 262 270 269 268 271 275 280 286 291 294 295 294 293 293 295 297 296 294
250 258 263 267 268 269 271 283 46 57 46 44 41 312 288 298 341 10 2 353 360 350 334 329 324 320 314 296 296 310 322 333 334 326 320 315 309 306 302 292 284 281 280 278 265 242 218 197 187 194 199 196 190 187 184 181 177 177 180 177 173 176 179 182 195 212 227 245 257 262 265 268 271 274 279 283 289 294 294 294 296 297 297 298 296 294 293
248 253 258 262 260 264 278 300 72 84 77 68 40 293 284 336 18 14 358 341 347 349 326 314 310 308 297 285 300 324 329 327 323 319 316 311 307 307 304 295 288 281 275 272 256 227 201 189 190 197 198 192 189 188 182 178 179 179 178 176 179 182 177 176 187 213 241 255 262 265 266 272 278 279 283 289 296 296 293 296 302 302 299 297 295 294 294
247 250 255 258 263 272 284 312 74 100 109 82 345 276 288 24 8 356 351 337 331 334 317 300 291 285 286 292 307 317 319 317 313 314 312 308 308 308 301 294 288 279 273 265 240 202 179 183 193 196 193 188 189 189 182 179 180 179 177 180 180 175 169 171 188 241 273 269 273 277 275 276 282 284 287 294 300 300 299 303 305 303 300 300 298 297 296
256 256 259 261 264 275 314 20 63 95 126 152 261 265 318 351 332 331 340 324 317 325 325 313 305 301 299 302 308 310 311 312 311 311 308 303 301 298 294 290 277 258 264 253 218 190 175 182 186 182 180 181 185 191 186 181 179 177 176 173 167 162 157 156 196 274 267 268 279 284 281 284 288 290 295 301 302 302 303 306 307 306 306 304 301 298 297
264 263 267 266 267 345 60 29 304 211 234 262 277 305 319 314 308 312 312 298 298 306 312 308 301 301 304 305 305 306 309 311 310 309 306 302 300 294 286 279 258 238 246 244 220 198 179 175 176 178 179 179 186 193 188 179 174 173 170 163 155 145 133 128 242 267 282 306 314 309 304 301 299 300 303 302 299 301 304 306 306 307 308 308 305 302 300
270 268 266 265 271 32 64 298 296 141 220 286 302 307 301 295 298 306 304 298 300 302 304 301 297 300 305 306 305 306 309 309 308 308 308 304 301 296 283 269 262 251 246 250 243 212 182 176 180 189 189 185 190 192 182 174 171 172 170 161 147 138 140 162 282 307 330 334 328 317 309 304 301 303 301 297 300 306 308 306 305 309 313 315 312 308 305
277 268 262 273 307 329 299 276 283 259 262 289 301 299 297 300 311 320 315 308 307 304 301 303 304 306 307 306 308 309 308 308 307 308 310 305 294 293 288 267 257 249 254 270 265 210 180 178 176 180 185 186 188 183 175 171 169 165 163 158 154 163 179 201 261 327 329 327 321 313 309 308 308 307 302 300 307 313 309 304 308 314 318 320 319 317 313
284 281 283 294 305 306 296 290 293 292 293 302 307 305 309 314 324 331 320 310 309 307 304 306 308 307 307 308 310 307 304 304 305 305 307 304 285 290 294 252 237 245 269 280 265 207 178 168 164 172 184 185 180 171 169 173 173 168 167 167 169 176 182 178 173 306 321 328 326 320 323 329 328 321 311 308 314 316 310 307 314 319 319 320 321 322 320
294 285 279 283 288 289 291 297 302 300 302 310 318 316 315 317 323 321 305 299 304 306 305 308 308 307 308 307 306 304 299 298 302 301 295 289 293 300 294 255 234 257 263 257 243 208 176 163 167 178 183 178 172 168 168 171 173 176 177 176 174 173 172 171 165 50 339 333 337 342 350 349 342 331 318 310 312 315 312 314 322 325 324 323 323 322 322
298 286 277 285 286 285 289 292 288 288 297 317 346 348 326 316 314 311 301 300 307 308 308 311 310 307 307 304 304 303 298 296 301 298 283 281 295 296 288 274 263 259 250 238 228 205 179 170 175 181 178 172 169 168 162 155 158 171 178 177 178 175 165 158 127 51 326 330 348 0 356 347 344 338 324 312 309 310 310 317 330 334 332 329 327 325 322
279 275 279 286 286 283 281 275 275 288 308 320 322 321 313 299 289 292 304 315 318 312 310 312 310 305 303 303 302 299 294 295 298 289 275 282 291 286 278 266 252 241 233 222 211 197 182 177 180 182 180 173 166 160 153 148 156 169 171 172 181 179 161 145 115 39 354 346 354 359 354 349 348 342 329 318 313 310 310 319 332 338 337 334 332 329 325
278 275 282 288 289 288 283 277 283 306 317 316 315 307 294 284 281 290 308 320 321 313 311 312 312 307 303 304 305 298 294 295 294 279 267 276 284 281 269 247 227 221 218 210 202 195 186 182 183 185 182 171 160 155 156 156 159 165 168 174 181 175 156 147 120 29 11 3 358 358 357 353 347 340 331 325 320 316 318 323 329 336 340 339 337 334 328
278 277 283 287 290 293 291 292 296 298 300 312 315 299 283 285 300 307 309 315 317 313 312 314 312 307 304 307 309 303 296 293 288 277 270 272 276 269 246 215 205 207 208 207 206 194 176 165 172 180 176 160 149 151 159 159 158 163 169 170 165 155 154 162 115 24 18 9 1 359 355 348 343 340 336 332 326 324 327 326 327 337 344 344 342 339 332
282 292 297 300 298 289 287 292 293 288 286 299 305 297 289 295 306 306 307 316 317 314 315 316 313 308 310 315 316 309 297 290 280 271 266 269 272 260 228 202 195 192 186 196 207 184 157 152 168 177 169 151 144 149 158 161 163 170 170 163 159 153 154 171 3 17 17 4 357 356 351 344 343 343 340 335 329 330 331 324 325 340 348 348 348 346 340
285 290 292 297 296 286 285 289 288 285 284 281 282 290 293 290 294 300 308 315 314 311 314 317 314 313 319 325 330 333 326 310 285 273 268 260 260 255 231 205 191 178 174 194 203 175 153 155 168 169 161 152 150 154 158 157 162 176 180 168 155 136 116 55 358 5 6 358 354 350 342 338 339 342 341 337 332 333 330 320 322 339 349 351 351 352 348
286 283 281 283 287 292 295 290 281 280 285 281 270 276 283 285 290 295 303 310 308 308 318 322 318 319 335 348 348 341 336 326 289 275 277 258 249 253 241 207 181 168 174 186 185 161 149 151 160 162 159 155 153 155 158 159 164 174 171 149 126 122 94 25 8 4 3 358 352 345 335 330 335 340 339 337 335 333 326 314 320 337 348 352 353 353 353
285 291 294 295 294 300 302 290 279 281 296 297 282 272 275 283 287 289 298 305 303 313 327 330 318 311 345 352 344 336 332 321 299 284 274 259 246 240 230 200 169 159 159 152 148 153 149 148 156 160 154 149 150 152 158 169 170 160 150 147 156 163 9 16 25 18 1 356 352 349 342 336 338 339 337 337 340 338 327 315 323 337 346 351 353 355 355
297 305 314 313 305 304 302 292 287 295 302 296 283 273 274 283 283 285 294 296 301 325 339 341 348 24 4 345 340 336 328 319 310 288 252 246 237 214 195 171 145 139 136 128 131 142 145 145 152 150 141 141 149 158 170 173 163 150 148 169 215 305 350 12 28 18 358 355 350 344 340 339 341 340 336 335 341 341 331 319 325 337 344 348 353 357 357
300 302 306 301 297 303 303 294 289 289 291 290 284 276 274 276 273 276 283 274 292 330 342 331 262 341 335 337 343 337 325 321 330 134 148 155 160 156 150 138 128 124 122 119 121 129 137 144 147 145 144 150 160 174 179 165 149 149 173 198 292 327 346 9 13 344 342 346 341 335 336 341 346 346 340 336 339 341 336 326 326 334 340 344 351 357 358
293 305 307 297 292 298 303 305 302 294 289 296 295 286 280 278 278 284 281 254 281 332 346 277 275 310 317 327 339 339 344 18 60 93 104 107 117 125 124 119 115 113 115 121 128 134 139 143 145 146 154 165 171 176 174 159 150 170 205 220 278 306 310 306 306 321 334 339 339 341 344 346 348 348 344 342 342 342 341 338 333 332 335 340 347 355 359
308 320 319 312 304 301 306 319 324 319 313 315 312 306 304 307 307 305 290 248 274 339 342 280 275 296 313 329 350 20 50 68 81 89 91 98 109 114 115 118 118 113 111 115 124 133 138 141 146 150 153 160 169 175 173 164 170 191 234 273 303 299 281 284 305 324 334 338 343 351 351 346 346 348 346 345 347 345 343 347 344 335 334 339 345 352 358
326 334 335 336 335 333 336 343 343 339 336 332 325 322 323 323 320 317 298 248 272 301 270 229 225 244 331 356 49 73 78 80 83 86 89 96 102 105 114 125 127 120 112 106 106 113 117 119 129 140 140 143 161 177 169 163 169 190 260 283 308 316 302 307 319 325 328 334 341 346 347 346 353 355 347 343 350 352 346 350 351 342 338 344 346 349 355
2 14 15 9 3 1 3 1 353 344 343 343 338 332 328 324 319 312 282 261 265 239 188 178 171 152 54 65 86 87 85 83 81 83 91 99 100 99 103 110 116 115 113 111 108 104 97 94 103 115 115 120 155 187 180 169 163 158 224 266 303 319 315 317 320 322 329 334 328 329 343 355 2 3 359 357 2 2 352 350 354 349 345 348 348 347 353
53 44 31 16 7 2 357 354 351 348 346 343 336 326 321 319 320 276 191 175 161 157 155 150 137 116 101 100 96 93 92 87 80 78 83 89 91 92 93 97 101 101 99 101 104 100 92 87 91 96 98 109 151 183 191 195 205 230 263 278 295 309 313 316 316 315 320 324 320 331 354 358 355 8 21 19 12 8 1 355 357 356 352 352 352 351 353
63 54 39 23 11 360 352 351 353 352 349 346 344 350 29 72 91 109 118 112 108 118 132 137 126 116 110 102 95 91 90 87 81 77 78 80 82 84 85 86 89 87 83 83 86 87 86 86 86 86 88 96 115 138 153 194 236 294 310 310 318 329 332 333 329 321 316 321 330 348 6 347 336 360 20 12 4 8 7 3 6 8 1 357 358 359 359
66 56 41 28 18 10 6 6 5 6 11 19 44 84 93 91 94 104 107 99 95 112 125 124 116 110 104 97 92 89 88 86 83 80 79 79 80 82 82 83 83 81 76 72 69 69 74 81 80 75 73 74 80 87 83 80 77 46 15 1 359 359 355 349 342 332 313 313 327 355 20 3 349 0 8 359 4 14 14 10 16 19 13 7 4 4 5
60 52 41 29 22 22 29 34 36 42 51 61 74 86 91 93 97 102 100 91 97 116 116 109 107 106 101 95 92 90 88 87 86 82 79 78 78 80 80 80 79 77 73 70 68 71 76 79 75 70 68 68 74 82 83 84 88 71 41 29 19 9 7 3 352 344 333 324 335 6 19 9 5 15 16 10 15 21 20 18 21 20 19 19 14 9 8
60 53 46 39 35 36 45 58 64 64 67 74 80 85 90 94 96 100 101 99 102 105 102 97 99 104 101 96 92 88 87 88 88 85 81 78 77 77 75 72 71 69 65 63 68 78 85 86 82 76 70 65 68 76 74 69 69 64 50 41 35 27 25 20 7 5 10 13 15 21 23 20 21 22 17 17 22 24 23 24 23 20 21 23 19 14 12
63 59 55 54 56 61 68 80 90 92 92 91 90 92 98 101 103 106 108 107 106 106 102 94 93 95 94 93 91 88 86 86 86 84 81 78 76 73 69 66 66 64 58 57 67 79 86 90 88 81 73 69 73 80 78 68 64 61 54 43 36 35 34 25 14 14 20 22 22 25 30 33 30 21 15 19 24 23 22 23 23 23 25 23 20 18 16
67 66 66 68 73 77 80 85 90 93 96 97 95 94 95 97 99 102 103 97 92 98 103 100 98 97 96 94 93 90 87 85 83 81 78 76 76 74 71 69 68 66 60 60 69 76 83 93 91 82 77 81 84 82 78 72 66 61 55 47 41 39 37 31 26 24 23 22 24 26 24 24 24 23 21 21 20 19 22 26 24 22 23 25 25 24 21
72 70 70 73 77 80 83 84 84 85 88 92 94 95 94 94 94 94 90 82 80 88 94 93 89 89 91 91 91 90 88 85 81 77 74 73 75 77 75 71 67 64 62 63 67 71 81 95 95 86 82 84 80 70 66 67 66 59 52 48 44 40 36 31 31 33 32 25 20 17 19 27 30 26 21 20 21 22 27 30 26 22 24 28 31 29 25
78 74 72 74 77 81 85 86 84 83 83 84 87 90 91 91 90 87 83 81 83 86 87 84 80 78 80 84 88 91 94 94 92 87 81 75 73 73 72 68 63 60 60 59 60 65 73 84 89 89 87 81 71 61 57 58 57 52 50 48 45 40 36 34 36 42 44 33 13 359 1 17 21 15 16 23 23 20 17 14 16 23 28 30 30 28 27
84 79 74 73 74 78 84 87 87 86 84 83 83 86 88 88 87 86 85 86 86 83 81 80 79 77 76 78 80 82 85 89 92 91 86 80 75 71 68 63 57 54 54 54 53 56 62 67 73 81 83 77 68 60 53 50 49 49 48 46 44 41 38 35 35 39 44 37 13 350 349 3 7 9 15 15 9 5 1 356 357 11 29 36 36 35 33
89 85 80 76 75 76 80 84 86 87 87 84 84 87 89 90 90 90 90 91 90 85 80 79 79 76 73 70 69 69 69 70 72 74 73 72 70 66 61 57 50 43 42 43 43 44 49 54 58 62 67 69 68 62 55 48 47 47 46 44 44 45 44 40 35 34 37 33 21 7 359 356 354 353 355 354 354 355 355 349 346 352 13 38 48 47 43
92 90 86 84 81 77 78 80 81 83 84 84 84 87 91 94 96 96 96 96 93 84 76 73 74 75 71 64 59 58 58 57 58 60 58 60 60 54 46 42 39 33 30 30 32 34 37 42 45 47 49 53 58 61 57 52 50 51 50 50 48 48 48 45 40 36 34 35 32 26 17 6 357 353 352 351 352 355 358 355 349 347 354 13 33 40 42
94 92 90 90 87 82 80 79 78 78 80 81 81 82 85 89 92 94 96 95 90 77 67 65 70 78 79 73 66 61 56 53 54 51 39 34 42 43 34 24 19 17 17 18 19 20 24 30 34 36 36 34 36 46 53 54 53 53 55 56 53 48 46 45 44 42 39 38 38 36 31 24 18 15 11 8 6 6 4 2 357 349 346 353 1 7 16
94 91 90 91 89 86 84 83 80 77 76 75 74 73 73 74 78 79 78 78 77 70 61 61 69 78 82 81 78 73 64 56 55 51 37 22 15 15 18 17 11 3 359 2 7 11 14 15 18 23 26 19 14 24 39 46 46 46 50 54 53 49 44 41 41 41 39 36 34 33 30 26 24 21 19 17 16 14 11 10 9 4 358 357 357 355 359
93 90 89 91 91 89 88 86 84 81 78 75 75 72 66 63 65 65 61 58 59 57 52 50 54 59 61 66 73 75 70 62 55 50 45 33 10 350 350 1 8 1 351 349 353 359 2 2 2 5 10 5 358 4 24 38 44 44 45 47 47 46 44 41 37 35 34 33 29 25 23 21 19 17 15 13 12 12 11 11 13 13 11 11 10 7 5
90 87 88 90 89 87 85 81 80 80 80 81 83 82 75 68 64 62 59 58 58 58 57 53 47 40 35 33 35 46 61 63 55 44 37 26 359 341 340 346 356 4 1 351 345 344 348 353 353 351 352 354 354 356 9 25 36 41 41 41 40 38 37 37 33 28 24 22 19 17 16 16 15 14 13 12 10 10 9 9 9 11 12 12 12 12 12
87 86 87 86 83 82 82 79 75 74 74 74 78 85 88 83 72 63 60 60 61 63 65 61 52 43 36 32 30 28 22 19 29 38 28 1 342 341 343 340 342 354 10 6 345 335 335 340 344 342 341 343 347 354 11 24 34 43 45 42 39 35 32 30 28 23 17 16 15 14 14 14 13 12 13 12 11 9 10 10 11 11 11 10 9 8 8
90 89 87 83 80 79 77 74 70 64 55 52 56 67 80 86 78 70 65 59 54 56 60 59 57 55 44 33 33 33 20 3 360 10 16 3 351 350 350 345 341 349 6 17 356 335 327 329 335 335 333 335 344 356 16 27 32 46 53 45 38 31 24 17 13 12 11 11 11 9 9 13 16 15 14 13 12 12 13 15 16 15 13 12 12 10 6
96 93 87 83 83 80 75 73 72 64 54 48 48 51 56 63 70 77 81 72 56 48 44 41 39 33 22 25 34 32 14 1 355 349 345 356 10 4 356 352 352 354 360 7 354 330 319 317 324 329 330 332 340 348 350 347 359 18 12 354 358 10 9 3 3 6 9 8 6 5 6 11 12 9 6 8 12 14 16 19 21 21 21 19 18 15 11
101 98 92 89 89 84 79 78 77 69 61 56 47 41 45 53 56 61 73 78 60 41 33 28 13 350 338 348 11 18 10 4 352 336 323 324 360 10 359 356 2 5 1 351 331 319 316 317 323 332 333 326 322 324 324 322 331 343 339 335 348 10 17 13 8 6 5 6 9 10 10 12 11 7 7 12 18 22 24 25 23 23 24 25 23 20 17
Height
1472 1469 1468 1467 1467 1466 1463 1462 1460 1458 1457 1458 1460 1460 1458 1457 1462 1463 1456 1455 1459 1457 1452 1448 1446 1447 1449 1450 1451 1451 1450 1449 1448 1447 1448 1447 1446 1445 1446 1447 1447 1448 1449 1449 1449 1450 1450 1449 1448 1449 1451 1453 1455 1456 1457 1460 1462 1463 1465 1467 1468 1470 1472 1474 1475 1477 1479 1480 1481 1482 1483 1483 1484 1484 1484 1484 1484 1484 1483 1482 1481 1479 1478 1477 1476 1475 1474
1469 1467 1467 1465 1466 1464 1462 1459 1455 1453 1454 1456 1457 1457 1455 1455 1456 1454 1452 1454 1454 1451 1448 1445 1445 1447 1448 1448 1449 1448 1447 1446 1445 1444 1444 1443 1443 1442 1441 1442 1442 1442 1443 1444 1447 1450 1451 1450 1448 1448 1449 1451 1452 1453 1455 1458 1460 1461 1463 1465 1466 1468 1470 1471 1473 1476 1477 1479 1479 1480 1481 1481 1482 1482 1482 1482 1481 1481 1480 1479 1478 1476 1475 1474 1473 1472 1470
1469 1466 1466 1465 1465 1465 1462 1456 1452 1452 1455 1456 1456 1455 1454 1454 1454 1451 1452 1454 1451 1446 1443 1444 1445 1445 1445 1446 1446 1445 1444 1443 1442 1441 1440 1440 1440 1439 1438 1438 1438 1437 1438 1438 1442 1447 1451 1451 1449 1447 1447 1449 1451 1452 1455 1457 1458 1459 1461 1463 1464 1466 1467 1469 1472 1474 1476 1477 1477 1478 1479 1479 1480 1480 1480 1479 1478 1478 1476 1476 1475 1474 1473 1472 1470 1469 1468
1471 1467 1468 1466 1463 1464 1460 1454 1452 1455 1457 1457 1455 1454 1453 1453 1453 1453 1454 1455 1450 1445 1443 1445 1445 1444 1444 1444 1443 1443 1442 1441 1440 1439 1438 1437 1437 1437 1436 1436 1435 1435 1436 1434 1435 1442 1448 1449 1448 1447 1446 1448 1449 1452 1454 1456 1457 1458 1460 1461 1462 1464 1466 1468 1470 1472 1474 1475 1475 1476 1477 1477 1478 1478 1477 1477 1476 1475 1474 1473 1472 1471 1470 1469 1468 1466 1465
1470 1467 1468 1465 1465 1467 1461 1452 1452 1454 1453 1453 1452 1450 1449 1448 1450 1452 1452 1450 1447 1445 1444 1445 1444 1444 1444 1443 1443 1444 1443 1441 1440 1439 1438 1437 1436 1436 1436 1435 1434 1435 1436 1434 1431 1434 1442 1448 1447 1445 1446 1447 1448 1451 1453 1455 1456 1457 1458 1460 1461 1463 1464 1467 1468 1470 1472 1473 1474 1475 1475 1476 1476 1475 1475 1474 1473 1472 1472 1471 1470 1468 1467 1466 1465 1463 1462
1470 1466 1467 1469 1473 1469 1456 1447 1449 1450 1449 1450 1449 1448 1446 1445 1445 1446 1446 1445 1445 1445 1446 1445 1445 1445 1444 1443 1444 1445 1443 1442 1441 1439 1438 1437 1436 1436 1436 1435 1434 1434 1435 1436 1434 1431 1436 1443 1445 1444 1445 1446 1447 1449 1451 1453 1455 1456 1457 1459 1460 1461 1463 1465 1467 1469 1470 1471 1473 1474 1474 1474 1474 1473 1472 1472 1471 1470 1469 1468 1467 1465 1464 1463 1462 1460 1459
1471 1467 1470 1479 1477 1461 1448 1447 1448 1447 1447 1447 1447 1445 1443 1442 1442 1443 1444 1445 1445 1446 1446 1447 1447 1447 1445 1444 1444 1444 1443 1442 1441 1439 1438 1437 1436 1436 1436 1435 1434 1433 1434 1437 1438 1436 1435 1436 1438 1442 1444 1445 1446 1447 1449 1452 1454 1455 1456 1458 1459 1460 1462 1464 1466 1468 1469 1470 1471 1472 1472 1472 1471 1471 1470 1469 1469 1468 1467 1465 1463 1462 1461 1460 1459 1457 1456
1473 1471 1473 1476 1467 1451 1446 1449 1448 1446 1448 1449 1450 1451 1447 1445 1446 1446 1447 1447 1447 1448 1448 1448 1449 1448 1446 1444 1443 1443 1443 1441 1441 1440 1439 1437 1437 1436 1435 1435 1434 1433 1432 1434 1437 1438 1435 1432 1433 1437 1442 1444 1445 1445 1447 1450 1452 1453 1455 1457 1458 1459 1461 1463 1465 1467 1469 1470 1470 1470 1470 1470 1469 1469 1468 1468 1468 1467 1465 1462 1460 1459 1458 1457 1456 1454 1453
1471 1470 1468 1465 1460 1453 1450 1450 1450 1452 1453 1454 1458 1460 1455 1450 1450 1451 1451 1450 1450 1451 1451 1450 1450 1449 1446 1443 1441 1441 1441 1440 1440 1440 1438 1438 1437 1436 1435 1434 1432 1431 1431 1431 1432 1434 1433 1430 1431 1435 1440 1443 1444 1444 1446 1448 1450 1452 1454 1455 1456 1458 1460 1462 1464 1466 1468 1469 1469 1469 1469 1468 1468 1468 1467 1466 1466 1465 1462 1460 1458 1457 1456 1454 1453 1451 1449
1466 1468 1467 1465 1465 1459 1451 1449 1453 1456 1457 1457 1460 1463 1458 1451 1451 1454 1454 1453 1453 1453 1453 1453 1452 1451 1448 1444 1440 1440 1440 1439 1439 1439 1438 1437 1436 1434 1432 1431 1428 1427 1427 1427 1428 1429 1427 1427 1430 1435 1439 1442 1443 1443 1444 1446 1448 1451 1452 1454 1455 1456 1458 1460 1463 1465 1466 1467 1467 1467 1467 1467 1466 1466 1465 1465 1463 1462 1460 1457 1455 1455 1453 1451 1450 1448 1446
1465 1468 1468 1466 1464 1456 1448 1450 1454 1457 1459 1457 1459 1463 1459 1452 1453 1455 1454 1454 1455 1454 1455 1455 1454 1453 1449 1444 1440 1440 1440 1439 1439 1439 1437 1435 1434 1431 1429 1427 1424 1423 1422 1423 1425 1424 1421 1422 1430 1436 1439 1440 1441 1442 1442 1444 1447 1449 1451 1453 1454 1454 1455 1458 1461 1463 1465 1465 1465 1465 1465 1465 1464 1464 1463 1462 1461 1459 1457 1455 1453 1452 1451 1449 1447 1444 1442
1458 1462 1463 1460 1456 1451 1448 1451 1455 1457 1457 1457 1462 1468 1460 1452 1454 1456 1455 1456 1456 1455 1456 1456 1454 1452 1450 1444 1440 1441 1441 1440 1439 1438 1435 1433 1431 1429 1427 1424 1422 1419 1418 1420 1423 1421 1418 1422 1430 1435 1436 1438 1440 1440 1441 1443 1446 1448 1450 1452 1452 1452 1453 1455 1458 1461 1463 1463 1463 1463 1463 1462 1462 1461 1461 1460 1459 1456 1454 1452 1451 1450 1448 1446 1443 1441 1438
1453 1456 1459 1456 1451 1449 1451 1454 1456 1458 1458 1460 1464 1464 1456 1452 1454 1454 1454 1456 1455 1454 1455 1455 1453 1452 1450 1446 1442 1441 1440 1438 1437 1435 1433 1430 1428 1427 1425 1423 1419 1417 1417 1421 1423 1421 1420 1423 1428 1431 1433 1435 1438 1440 1441 1443 1445 1448 1449 1449 1449 1451 1452 1454 1458 1460 1461 1461 1461 1460 1460 1460 1459 1459 1458 1458 1457 1454 1452 1450 1449 1447 1445 1443 1440 1437 1434
1453 1453 1454 1453 1450 1451 1454 1456 1455 1457 1460 1461 1458 1453 1451 1452 1453 1451 1453 1453 1452 1451 1452 1451 1451 1449 1447 1445 1442 1440 1438 1436 1434 1432 1429 1426 1425 1424 1423 1421 1418 1416 1419 1422 1423 1421 1420 1422 1425 1428 1431 1433 1436 1439 1441 1443 1445 1446 1446 1447 1449 1451 1453 1455 1457 1459 1459 1458 1458 1458 1458 1457 1457 1457 1456 1455 1454 1452 1450 1449 1447 1445 1443 1440 1437 1433 1430
1454 1454 1456 1456 1454 1454 1456 1457 1456 1457 1459 1457 1453 1451 1451 1451 1450 1450 1451 1450 1449 1449 1448 1447 1447 1445 1443 1441 1439 1437 1436 1434 1432 1430 1426 1423 1422 1420 1419 1418 1417 1418 1420 1422 1422 1421 1420 1421 1424 1426 1429 1432 1435 1438 1440 1442 1444 1444 1445 1447 1450 1452 1453 1455 1457 1457 1457 1457 1457 1457 1456 1456 1455 1455 1454 1453 1451 1449 1448 1447 1444 1442 1440 1437 1434 1430 1427
1457 1457 1456 1455 1453 1453 1455 1456 1456 1456 1455 1453 1451 1451 1450 1449 1449 1450 1450 1449 1449 1449 1447 1445 1444 1442 1440 1439 1437 1435 1434 1432 1429 1427 1423 1421 1420 1419 1417 1416 1418 1421 1421 1420 1420 1421 1421 1422 1424 1426 1429 1432 1435 1437 1439 1441 1443 1443 1445 1449 1451 1452 1454 1455 1455 1456 1456 1456 1457 1456 1456 1455 1454 1453 1452 1451 1449 1448 1446 1445 1443 1440 1437 1434 1431 1427 1423
1458 1458 1455 1452 1452 1453 1454 1454 1452 1452 1451 1450 1450 1450 1450 1449 1449 1449 1449 1449 1449 1447 1446 1444 1441 1439 1438 1436 1435 1434 1432 1429 1426 1424 1422 1419 1418 1417 1416 1416 1419 1421 1421 1419 1420 1422 1422 1422 1424 1427 1429 1432 1434 1436 1438 1441 1442 1443 1445 1449 1452 1452 1453 1454 1454 1455 1456 1456 1456 1455 1454 1453 1452 1451 1450 1449 1447 1446 1444 1443 1441 1438 1435 1432 1428 1423 1419
1458 1457 1454 1453 1453 1453 1452 1452 1451 1450 1450 1449 1448 1449 1449 1448 1448 1448 1448 1447 1445 1445 1445 1442 1439 1438 1436 1434 1433 1431 1428 1426 1424 1422 1420 1419 1417 1416 1416 1416 1418 1420 1419 1419 1420 1421 1422 1424 1425 1427 1430 1432 1434 1436 1438 1440 1441 1443 1446 1450 1451 1452 1453 1453 1453 1454 1455 1455 1455 1453 1452 1451 1450 1450 1449 1447 1446 1444 1442 1441 1439 1437 1433 1429 1425 1420 1416
1461 1458 1453 1452 1453 1452 1451 1450 1449 1449 1449 1448 1448 1447 1447 1447 1446 1446 1445 1443 1442 1442 1442 1440 1438 1436 1434 1432 1431 1428 1425 1422 1421 1420 1419 1418 1417 1417 1417 1416 1417 1418 1419 1419 1420 1421 1423 1424 1426 1428 1430 1432 1434 1436 1437 1438 1441 1444 1447 1450 1450 1451 1452 1452 1452 1453 1454 1454 1453 1452 1451 1450 1449 1448 1447 1445 1444 1442 1440 1439 1437 1434 1430 1426 1422 1418 1413
1459 1456 1451 1450 1450 1449 1448 1448 1446 1446 1447 1447 1446 1445 1445 1445 1444 1443 1442 1440 1439 1438 1439 1438 1436 1433 1431 1430 1428 1425 1422 1419 1418 1419 1418 1418 1418 1418 1417 1416 1416 1417 1418 1419 1420 1421 1423 1425 1427 1429 1431 1432 1434 1436 1437 1439 1442 1445 1447 1448 1449 1450 1450 1451 1452 1453 1453 1453 1452 1451 1450 1449 1448 1447 1445 1443 1441 1439 1438 1436 1434 1432 1428 1424 1420 1416 1411
1454 1451 1449 1449 1449 1447 1446 1445 1444 1444 1444 1444 1444 1444 1444 1443 1442 1441 1439 1438 1437 1436 1436 1436 1434 1431 1428 1426 1425 1423 1420 1417 1417 1417 1417 1417 1417 1417 1416 1415 1415 1416 1418 1419 1420 1422 1423 1425 1427 1429 1431 1432 1433 1435 1438 1440 1442 1444 1446 1447 1448 1449 1449 1451 1452 1452 1452 1452 1450 1449 1449 1448 1447 1445 1444 1442 1440 1438 1436 1435 1433 1431 1427 1423 1418 1414 1409
1451 1448 1447 1449 1451 1449 1446 1445 1444 1443 1442 1441 1441 1443 1444 1442 1440 1439 1437 1436 1435 1435 1434 1433 1431 1428 1425 1423 1422 1421 1418 1417 1416 1417 1417 1416 1415 1416 1416 1416 1416 1417 1418 1419 1421 1423 1424 1425 1427 1429 1431 1431 1432 1436 1440 1441 1441 1444 1445 1446 1447 1448 1449 1451 1451 1451 1451 1450 1449 1448 1448 1447 1445 1444 1442 1440 1438 1437 1435 1434 1432 1430 1426 1421 1417 1412 1407
1449 1447 1446 1448 1449 1447 1444 1443 1443 1442 1440 1439 1439 1441 1442 1440 1438 1436 1435 1434 1433 1432 1432 1431 1429 1426 1423 1421 1420 1418 1417 1417 1417 1417 1417 1415 1414 1415 1416 1417 1417 1418 1419 1420 1422 1423 1423 1425 1428 1430 1431 1432 1433 1436 1439 1440 1441 1444 1444 1445 1446 1448 1449 1450 1450 1449 1449 1448 1448 1447 1447 1446 1445 1443 1441 1439 1436 1435 1434 1432 1431 1429 1425 1420 1416 1411 1406
1447 1446 1447 1447 1446 1444 1442 1442 1442 1440 1439 1437 1436 1437 1438 1436 1435 1434 1433 1431 1431 1430 1429 1428 1426 1424 1422 1420 1418 1417 1417 1416 1416 1416 1416 1415 1414 1414 1415 1416 1417 1418 1419 1421 1422 1422 1423 1425 1428 1429 1431 1432 1434 1436 1438 1440 1442 1443 1444 1445 1447 1448 1449 1449 1449 1448 1448 1447 1447 1446 1445 1445 1444 1443 1441 1439 1437 1435 1433 1431 1429 1427 1424 1419 1415 1410 1406
1446 1445 1445 1445 1443 1441 1440 1440 1439 1438 1437 1435 1434 1433 1433 1433 1432 1431 1430 1429 1429 1428 1426 1425 1423 1422 1421 1419 1418 1417 1416 1415 1415 1415 1414 1414 1414 1414 1414 1415 1416 1417 1419 1420 1421 1422 1423 1425 1427 1429 1431 1432 1434 1436 1438 1440 1442 1443 1444 1446 1447 1447 1448 1448 1448 1448 1447 1446 1446 1445 1444 1443 1442 1441 1440 1439 1437 1435 1433 1431 1429 1427 1423 1419 1414 1409 1404
1445 1444 1443 1442 1439 1437 1437 1438 1437 1435 1434 1434 1433 1431 1430 1429 1428 1428 1428 1428 1427 1426 1424 1423 1421 1421 1420 1419 1418 1417 1415 1414 1414 1413 1413 1414 1414 1413 1413 1415 1416 1417 1419 1420 1421 1422 1424 1425 1427 1429 1431 1432 1434 1436 1438 1440 1442 1443 1445 1446 1447 1447 1448 1447 1447 1447 1446 1446 1446 1445 1444 1443 1442 1440 1439 1438 1436 1435 1433 1430 1428 1425 1422 1418 1413 1408 1403
1442 1442 1442 1441 1437 1434 1435 1436 1435 1433 1432 1432 1431 1429 1427 1426 1425 1425 1425 1425 1425 1424 1423 1422 1421 1420 1420 1419 1418 1418 1416 1414 1412 1412 1413 1413 1413 1414 1414 1415 1416 1418 1419 1420 1421 1423 1425 1426 1428 1430 1431 1433 1435 1437 1439 1440 1441 1443 1445 1446 1446 1447 1447 1446 1446 1446 1446 1446 1446 1444 1443 1442 1441 1440 1439 1437 1436 1434 1432 1429 1426 1423 1420 1416 1412 1407 1402
1441 1439 1440 1440 1438 1435 1433 1433 1431 1430 1429 1429 1429 1427 1426 1424 1423 1423 1423 1423 1423 1423 1423 1422 1422 1421 1421 1421 1420 1418 1416 1414 1413 1413 1413 1413 1414 1415 1416 1416 1418 1419 1420 1422 1423 1424 1426 1428 1430 1431 1433 1435 1437 1438 1439 1440 1441 1443 1445 1446 1446 1446 1446 1446 1446 1445 1445 1445 1445 1444 1443 1442 1440 1439 1438 1437 1435 1433 1431 1429 1426 1423 1419 1416 1411 1407 1402
1439 1437 1437 1437 1436 1434 1432 1430 1429 1428 1427 1427 1426 1425 1424 1422 1421 1421 1421 1422 1422 1423 1422 1423 1423 1423 1422 1422 1421 1419 1417 1415 1414 1414 1414 1415 1416 1417 1417 1418 1419 1420 1422 1424 1425 1426 1428 1430 1431 1432 1434 1436 1437 1438 1440 1440 1441 1443 1445 1445 1445 1446 1445 1445 1445 1444 1444 1444 1444 1443 1442 1441 1440 1439 1438 1436 1434 1433 1431 1428 1425 1422 1419 1415 1411 1406 1401
1435 1435 1434 1434 1433 1431 1429 1428 1428 1427 1426 1425 1425 1423 1422 1421 1420 1420 1420 1420 1421 1422 1423 1423 1423 1424 1424 1423 1422 1420 1418 1417 1416 1416 1417 1417 1418 1419 1419 1419 1420 1422 1424 1425 1427 1428 1430 1431 1432 1434 1435 1436 1437 1439 1440 1440 1441 1443 1444 1444 1444 1444 1444 1444 1443 1443 1444 1444 1443 1442 1442 1441 1440 1439 1438 1436 1434 1432 1430 1428 1425 1422 1419 1415 1411 1406 1400
1434 1434 1433 1432 1431 1429 1427 1427 1427 1427 1425 1425 1424 1423 1422 1420 1420 1420 1419 1420 1420 1421 1422 1422 1423 1424 1424 1424 1422 1421 1420 1420 1419 1419 1419 1419 1420 1421 1421 1422 1423 1424 1425 1426 1428 1429 1431 1432 1434 1435 1436 1437 1438 1439 1439 1440 1441 1443 1443 1443 1443 1443 1443 1443 1443 1443 1443 1443 1443 1442 1442 1441 1440 1438 1437 1435 1433 1432 1430 1428 1425 1422 1419 1415 1412 1408 1403
1432 1432 1432 1431 1430 1429 1427 1427 1427 1426 1424 1423 1423 1422 1421 1420 1419 1419 1419 1419 1420 1420 1421 1422 1424 1425 1425 1424 1423 1423 1423 1423 1422 1422 1422 1422 1422 1423 1423 1423 1424 1425 1427 1428 1430 1431 1433 1434 1435 1435 1437 1438 1438 1438 1438 1439 1440 1441 1442 1442 1443 1443 1442 1442 1442 1442 1442 1443 1442 1442 1441 1441 1440 1438 1437 1435 1433 1432 1430 1428 1425 1422 1419 1416 1413 1409 1405
1432 1432 1432 1431 1430 1429 1428 1427 1426 1425 1424 1423 1422 1422 1420 1419 1419 1418 1419 1419 1420 1420 1422 1423 1425 1426 1426 1426 1425 1425 1425 1425 1425 1425 1425 1424 1425 1425 1425 1425 1426 1427 1429 1431 1432 1433 1435 1436 1436 1437 1437 1437 1437 1438 1439 1440 1441 1441 1442 1442 1442 1442 1442 1442 1442 1442 1442 1442 1442 1441 1441 1440 1439 1438 1436 1434 1434 1432 1430 1427 1424 1422 1419 1417 1414 1411 1407
1432 1432 1433 1432 1431 1430 1429 1427 1426 1425 1424 1423 1422 1421 1420 1420 1419 1419 1419 1420 1421 1422 1424 1425 1426 1427 1428 1428 1427 1427 1427 1427 1427 1428 1428 1427 1427 1428 1428 1428 1429 1431 1432 1433 1434 1435 1436 1437 1438 1438 1438 1438 1438 1439 1440 1440 1441 1442 1441 1441 1441 1442 1442 1442 1442 1442 1442 1441 1441 1441 1440 1440 1439 1437 1435 1434 1433 1431 1428 1426 1424 1422 1419 1417 1414 1412 1409
1433 1433 1433 1432 1432 1430 1429 1428 1427 1425 1424 1423 1422 1421 1421 1421 1421 1421 1421 1422 1423 1425 1426 1427 1428 1428 1429 1430 1429 1429 1429 1429 1429 1430 1430 1430 1431 1431 1432 1432 1433 1434 1435 1436 1437 1438 1438 1439 1439 1439 1439 1439 1439 1440 1440 1440 1441 1441 1441 1441 1442 1442 1442 1442 1442 1442 1441 1441 1441 1440 1439 1439 1438 1437 1435 1434 1433 1431 1428 1426 1425 1422 1420 1417 1415 1412 1410
1434 1434 1434 1433 1431 1430 1428 1427 1427 1426 1424 1424 1423 1423 1423 1422 1422 1423 1424 1424 1425 1427 1428 1429 1430 1431 1432 1432 1432 1431 1432 1432 1432 1433 1433 1433 1434 1435 1435 1436 1436 1437 1437 1438 1438 1439 1440 1440 1440 1441 1441 1441 1441 1441 1441 1441 1441 1441 1441 1442 1442 1443 1443 1442 1442 1441 1441 1441 1440 1439 1439 1438 1438 1437 1436 1435 1434 1431 1429 1427 1425 1422 1420 1417 1415 1413 1410
1436 1436 1435 1433 1431 1429 1428 1427 1427 1427 1426 1425 1425 1424 1424 1424 1424 1425 1426 1427 1428 1429 1431 1432 1433 1433 1434 1434 1434 1434 1434 1435 1435 1436 1437 1437 1438 1438 1438 1439 1440 1440 1439 1439 1440 1440 1440 1440 1441 1441 1442 1442 1442 1442 1442 1442 1442 1442 1442 1442 1443 1443 1443 1442 1442 1441 1441 1440 1440 1439 1439 1439 1438 1437 1436 1435 1434 1432 1430 1428 1425 1423 1420 1418 1416 1414 1411
1438 1437 1436 1435 1433 1431 1429 1428 1428 1428 1427 1427 1427 1427 1427 1427 1427 1427 1429 1430 1432 1433 1434 1435 1436 1436 1436 1436 1437 1437 1438 1438 1439 1439 1441 1441 1442 1441 1442 1443 1443 1442 1442 1442 1442 1442 1441 1440 1440 1441 1441 1442 1442 1443 1443 1443 1442 1442 1443 1443 1443 1443 1443 1443 1442 1442 1441 1441 1440 1440 1440 1439 1439 1438 1437 1436 1434 1433 1431 1429 1427 1425 1422 1419 1417 1415 1413
1440 1439 1439 1437 1436 1434 1433 1432 1431 1430 1430 1429 1429 1430 1430 1430 1429 1430 1432 1435 1435 1435 1436 1438 1439 1439 1439 1440 1440 1441 1442 1443 1443 1444 1445 1445 1445 1445 1445 1445 1445 1445 1445 1445 1444 1444 1443 1443 1443 1442 1443 1443 1443 1443 1444 1443 1443 1443 1443 1444 1443 1443 1443 1443 1443 1442 1441 1441 1441 1441 1440 1439 1439 1438 1437 1436 1434 1433 1432 1430 1428 1426 1424 1421 1418 1416 1415
1442 1442 1441 1440 1439 1438 1437 1436 1435 1435 1434 1433 1433 1434 1434 1434 1433 1434 1436 1437 1438 1437 1437 1439 1441 1442 1442 1442 1443 1444 1445 1446 1447 1448 1448 1448 1448 1447 1447 1447 1447 1447 1447 1447 1446 1446 1446 1445 1445 1444 1444 1444 1444 1444 1444 1444 1444 1444 1444 1444 1444 1444 1444 1443 1442 1442 1442 1441 1441 1440 1439 1439 1438 1437 1436 1435 1434 1433 1432 1431 1429 1427 1426 1424 1421 1418 1416
1444 1444 1444 1443 1442 1441 1440 1440 1439 1439 1438 1437 1437 1437 1438 1438 1438 1438 1439 1440 1440 1440 1440 1441 1443 1445 1446 1446 1446 1447 1447 1448 1449 1450 1450 1450 1450 1450 1449 1449 1450 1450 1449 1449 1448 1448 1448 1447 1446 1446 1446 1446 1446 1445 1445 1444 1445 1445 1445 1445 1445 1445 1444 1443 1442 1442 1441 1441 1440 1439 1439 1438 1438 1437 1436 1436 1435 1433 1432 1431 1430 1428 1427 1426 1424 1421 1419
1447 1447 1446 1446 1445 1444 1444 1444 1443 1442 1442 1442 1442 1442 1443 1442 1442 1442 1443 1444 1444 1444 1445 1446 1447 1448 1449 1450 1450 1451 1451 1452 1453 1453 1453 1452 1452 1452 1452 1452 1453 1452 1452 1451 1450 1450 1449 1449 1448 1448 1448 1448 1448 1447 1446 1446 1446 1446 1446 1446 1445 1445 1444 1444 1443 1442 1441 1441 1440 1439 1439 1439 1438 1437 1437 1436 1435 1434 1433 1432 1430 1429 1428 1427 1426 1425 1422
1450 1450 1449 1449 1449 1448 1447 1447 1446 1446 1446 1446 1447 1447 1447 1447 1447 1448 1448 1448 1449 1449 1450 1451 1451 1451 1452 1453 1453 1454 1455 1456 1456 1456 1456 1455 1455 1454 1454 1454 1454 1454 1453 1452 1452 1451 1451 1450 1450 1450 1450 1450 1449 1449 1448 1448 1447 1447 1447 1447 1446 1445 1445 1444 1443 1442 1441 1441 1440 1439 1439 1439 1438 1438 1437 1436 1436 1435 1434 1432 1431 1429 1428 1427 1426 1425 1424
1452 1452 1452 1452 1452 1451 1451 1450 1449 1449 1449 1450 1451 1451 1451 1451 1452 1452 1453 1453 1454 1454 1454 1455 1455 1455 1455 1456 1456 1457 1457 1458 1458 1458 1458 1457 1456 1456 1455 1455 1455 1455 1454 1454 1453 1453 1452 1452 1452 1452 1452 1451 1450 1449 1449 1448 1448 1448 1447 1447 1446 1446 1445 1444 1444 1443 1442 1441 1441 1440 1440 1440 1439 1439 1438 1437 1436 1435 1434 1433 1431 1430 1429 1428 1427 1426 1425
1454 1454 1455 1455 1454 1454 1454 1453 1453 1453 1453 1453 1453 1454 1454 1454 1455 1455 1456 1456 1456 1457 1457 1457 1457 1457 1458 1458 1459 1460 1460 1460 1460 1460 1459 1458 1457 1457 1457 1456 1456 1455 1455 1455 1454 1454 1453 1453 1453 1453 1452 1452 1451 1450 1449 1449 1449 1448 1448 1447 1447 1446 1446 1445 1445 1444 1443 1443 1442 1441 1441 1440 1440 1439 1438 1438 1437 1436 1435 1434 1432 1431 1429 1428 1427 1426 1425
1456 1457 1457 1457 1457 1457 1457 1457 1457 1457 1457 1456 1456 1457 1457 1457 1457 1457 1458 1458 1458 1459 1459 1459 1459 1460 1460 1460 1460 1461 1461 1462 1461 1461 1460 1459 1458 1458 1458 1458 1457 1456 1455 1455 1455 1454 1454 1454 1453 1453 1452 1452 1451 1451 1450 1449 1449 1449 1448 1448 1447 1447 1446 1446 1445 1445 1444 1444 1443 1442 1442 1441 1441 1440 1439 1439 1438 1437 1436 1435 1433 1432 1430 1429 1428 1427 1426
1459 1459 1459 1459 1460 1460 1460 1460 1460 1460 1459 1459 1459 1459 1460 1460 1460 1460 1460 1460 1460 1461 1461 1461 1461 1461 1462 1462 1462 1462 1462 1462 1462 1462 1461 1461 1460 1458 1458 1458 1457 1456 1456 1455 1455 1454 1454 1453 1453 1452 1452 1452 1452 1451 1451 1450 1449 1449 1448 1448 1448 1447 1447 1447 1446 1445 1445 1444 1444 1443 1443 1442 1441 1441 1440 1439 1438 1438 1437 1435 1434 1433 1432 1430 1429 1428 1427
1461 1461 1461 1461 1461 1461 1462 1462 1462 1462 1462 1462 1462 1462 1463 1463 1463 1463 1463 1463 1463 1463 1463 1463 1463 1463 1463 1463 1463 1462 1462 1462 1462 1462 1462 1461 1460 1459 1458 1457 1457 1457 1456 1455 1454 1454 1453 1453 1452 1452 1452 1452 1452 1451 1451 1450 1449 1449 1448 1448 1448 1448 1447 1447 1446 1446 1445 1445 1444 1444 1443 1443 1442 1441 1441 1440 1439 1438 1437 1436 1435 1434 1433 1432 1430 1429 1428
1462 1463 1463 1463 1463 1463 1463 1464 1464 1464 1464 1464 1464 1464 1464 1465 1465 1465 1466 1466 1466 1466 1465 1465 1465 1465 1465 1464 1464 1463 1463 1462 1462 1462 1462 1461 1460 1459 1458 1457 1457 1456 1456 1455 1454 1453 1452 1452 1452 1452 1452 1452 1451 1451 1450 1450 1449 1449 1448 1448 1448 1448 1448 1447 1447 1446 1445 1445 1445 1444 1444 1443 1443 1442 1441 1441 1440 1439 1438 1437 1436 1435 1434 1433 1432 1431 1430
1464 1464 1464 1464 1464 1464 1465 1465 1465 1465 1465 1465 1464 1465 1465 1465 1465 1466 1466 1467 1467 1467 1467 1466 1466 1466 1466 1465 1465 1464 1464 1463 1462 1462 1461 1461 1460 1459 1458 1457 1456 1456 1455 1455 1454 1453 1452 1451 1451 1451 1451 1451 1451 1450 1450 1449 1449 1449 1448 1448 1448 1448 1448 1447 1447 1446 1446 1445 1445 1444 1444 1443 1443 1443 1442 1441 1440 1440 1439 1438 1437 1436 1435 1434 1433 1432 1431
1464 1465 1465 1465 1465 1466 1466 1466 1466 1466 1466 1466 1466 1466 1466 1466 1465 1465 1466 1467 1467 1467 1467 1467 1466 1465 1465 1465 1465 1465 1464 1463 1462 1461 1460 1460 1459 1459 1458 1457 1456 1455 1455 1455 1454 1453 1452 1451 1451 1451 1451 1450 1450 1450 1449 1449 1448 1448 1448 1448 1448 1447 1447 1447 1446 1446 1446 1445 1445 1444 1444 1444 1443 1443 1442 1442 1441 1440 1439 1439 1438 1437 1436 1435 1434 1433 1432
1465 1465 1466 1466 1466 1467 1467 1467 1467 1468 1468 1467 1467 1467 1467 1467 1467 1466 1466 1467 1467 1467 1467 1467 1467 1465 1464 1464 1464 1464 1464 1463 1462 1461 1459 1459 1459 1458 1458 1457 1456 1456 1455 1454 1453 1452 1451 1451 1450 1450 1450 1450 1449 1449 1448 1448 1448 1447 1447 1447 1447 1447 1447 1447 1446 1446 1446 1445 1445 1444 1444 1444 1443 1443 1442 1442 1441 1441 1440 1439 1438 1437 1436 1436 1435 1434 1433